Home   Weather   Imperatriz   Past weeks
Flag for Brazil

Past Weather in Imperatriz, Maranhão, Brazil — Yesterday and Last 2 Weeks

Now
86 °F

Scattered clouds.


Feels Like: 95 °F
Forecast: 96 / 76 °F
Wind: 6 mph from Northeast

Location: Imperatriz Airport

Current Time: Oct 21, 2019 at 10:04:00 am

Latest Report: Oct 21, 2019 at 9:00 am


Visibility: N/A

Pressure: 29.92 "Hg

Humidity: 70%

Dew Point: 75 °F

Location of ImperatrizLocation

Past Weather in Imperatriz — Graph

°F

Imperatriz Temperature Yesterday

Maximum temperature yesterday: 90 °F (at 4:00 pm)
Minimum temperature yesterday: 79 °F (at 4:00 am)
Average temperature yesterday: 84 °F

High & Low Weather Summary for the Past Weeks

 TemperatureHumidityPressure
High100 °F (Oct 19, 4:00 pm)94% (Oct 21, 6:00 am)29.98 "Hg (Oct 21, 6:00 am)
Low73 °F (Oct 21, 6:00 am)35% (Oct 10, 4:00 pm)29.71 "Hg (Oct 12, 5:00 pm)
Average86 °F65%29.84 "Hg
* Reported Oct 6 9:00 am — Oct 21 9:00 am, Imperatriz. Weather by CustomWeather, © 2019

Note: Actual official high and low records may vary slightly from our data, if they occured in-between our weather recording intervals... More about our weather records

Advertising

Imperatriz Weather History for the Previous 24 Hours

Scroll right to see more
 ConditionsComfort  
Time TempWeatherWind HumidityBarometerVisibility
9:00 am
Mon, Oct 21
86 °FScattered clouds.6 mph70%29.92 "HgN/A
8:00 am84 °FPartly sunny.3 mph70%29.89 "HgN/A
7:00 am81 °FScattered clouds.No wind79%29.86 "HgN/A
6:00 am73 °FSunny.2 mph94%29.86 "Hg10 mi
5:00 am75 °FClear.No wind89%29.83 "Hg10 mi
4:00 am77 °FClear.No wind83%29.80 "Hg10 mi
3:00 am77 °FClear.2 mph83%29.80 "Hg10 mi
2:00 am77 °FClear.2 mph83%29.80 "Hg10 mi
1:00 am77 °FClear.No wind83%29.83 "Hg10 mi
6:00 pm
Sun, Oct 20
88 °FPassing clouds.No wind62%29.77 "HgN/A
5:00 pm90 °FScattered clouds.2 mph59%29.77 "HgN/A
4:00 pm90 °FScattered clouds.5 mph55%29.80 "HgN/A
3:00 pm88 °FMore clouds than sun.5 mph62%29.83 "HgN/A
2:00 pm88 °FOvercast.5 mph62%29.83 "HgN/A
1:00 pm86 °FPartly sunny.6 mph62%29.86 "HgN/A
12:00 pm86 °FPartly sunny.2 mph62%29.89 "HgN/A
11:00 am84 °FPartly sunny.6 mph66%29.92 "HgN/A
10:00 am82 °FPartly sunny.8 mph70%29.92 "HgN/A
Weather by CustomWeather, © 2019

See weather overview